Change the Weather History Date:

Wednesday, September 19, 2012

  Actual Average Record
Temperature  
Mean Temperature 83 °F 83 °F  
Max Temperature 89 °F 89 °F 98 °F (1955)
Min Temperature 76 °F 77 °F 69 °F (1975)
Degree Days  
Heating Degree Days 0 0  
Month to date heating degree days 0 0  
Since 1 July heating degree days 0 0  
Cooling Degree Days 18 18  
Month to date cooling degree days 338 348  
Year to date cooling degree days 3527 3514  
Growing Degree Days 32 (Base 50)    
Moisture  
Dew Point 74 °F    
Average Humidity 79    
Maximum Humidity 94    
Minimum Humidity 63    
Precipitation  
Precipitation 0.00 in 0.33 in 5.35 in (1984)
Month to date precipitation 5.64 5.49  
Year to date precipitation 48.97 46.56  
Snow  
Snow 0.00 in - - ()
Month to date snowfall 0.0  
Since 1 July snowfall 0.0  
Since 1 September snowfall 0.0  
Snow Depth 0.00 in    
Sea Level Pressure  
Sea Level Pressure 29.99 in    
Wind  
Wind Speed 4 mph (SSE)    
Max Wind Speed 12 mph    
Max Gust Speed 14 mph    
Visibility 10 miles    
Events      
T = Trace of Precipitation, MM = Missing Value Source: NWS Daily Summary

Daily Weather History Graph

Daily Weather History Graph

Search for Another Location

Airport or City:

Trip Planner

Search our weather history database for the weather conditions in past years. The results will help you decide how hot, cold, wet, or windy it might be!

Date:

Astronomy

Sep. 19, 2012 Rise Set
Actual Time 7:08 AM EDT 7:19 PM EDT
Civil Twilight 6:45 AM EDT 7:42 PM EDT
Nautical Twilight 6:18 AM EDT 8:09 PM EDT
Astronomical Twilight 5:51 AM EDT 8:36 PM EDT
Moon 10:47 AM EDT (9/19) 9:58 PM EDT (9/19)
Length of Visible Light 12h 57m
Length of Day
12h 11m
Waxing Crescent, 17% of the Moon is Illuminated
Sep 19
Waxing Crescent
Sep 22
First Quarter
Sep 29
Full
Oct 8
Last Quarter
Oct 15
New

Hourly Weather History & Observations

Time (EDT) Temp. Heat Index Dew Point Humidity Pressure Visibility Wind Dir Wind Speed Gust Speed Precip Events Conditions
12:53 AM 77.0 °F - 73.9 °F 90% 30.00 in 10.0 mi Calm Calm - N/A   Clear
1:53 AM 77.0 °F - 75.0 °F 94% 29.98 in 10.0 mi Calm Calm - N/A   Partly Cloudy
2:53 AM 75.9 °F - 73.0 °F 91% 29.94 in 10.0 mi South 3.5 mph - N/A   Clear
3:53 AM 75.9 °F - 73.0 °F 91% 29.94 in 10.0 mi SSW 4.6 mph - N/A   Partly Cloudy
4:53 AM 77.0 °F - 73.9 °F 90% 29.95 in 10.0 mi Calm Calm - N/A   Mostly Cloudy
5:53 AM 77.0 °F - 73.9 °F 90% 29.96 in 10.0 mi Calm Calm - N/A   Partly Cloudy
6:53 AM 77.0 °F - 73.9 °F 90% 29.96 in 10.0 mi Calm Calm - N/A   Clear
7:53 AM 78.1 °F - 75.0 °F 90% 29.97 in 10.0 mi West 4.6 mph - N/A   Partly Cloudy
8:53 AM 80.1 °F 85.4 °F 75.9 °F 87% 29.98 in 10.0 mi Calm Calm - N/A   Partly Cloudy
9:53 AM 82.0 °F 87.9 °F 73.9 °F 76% 29.99 in 10.0 mi West 5.8 mph - N/A   Clear
10:53 AM 84.9 °F 92.1 °F 73.9 °F 69% 30.00 in 10.0 mi WSW 6.9 mph - N/A   Partly Cloudy
11:53 AM 87.1 °F 94.5 °F 73.0 °F 63% 30.01 in 10.0 mi NW 4.6 mph - N/A   Partly Cloudy
12:53 PM 88.0 °F 95.6 °F 73.0 °F 61% 30.01 in 10.0 mi West 4.6 mph - N/A   Partly Cloudy
1:53 PM 84.9 °F 94.1 °F 75.9 °F 74% 30.01 in 10.0 mi SE 5.8 mph - N/A   Mostly Cloudy
2:53 PM 84.9 °F 93.3 °F 75.0 °F 72% 30.00 in 10.0 mi ESE 8.1 mph - N/A   Mostly Cloudy
3:53 PM 84.9 °F 92.1 °F 73.9 °F 69% 29.99 in 10.0 mi SE 8.1 mph - N/A   Scattered Clouds
4:53 PM 86.0 °F 93.8 °F 73.9 °F 67% 29.97 in 10.0 mi ESE 8.1 mph - N/A   Partly Cloudy
5:53 PM 84.0 °F 90.2 °F 73.0 °F 69% 29.96 in 10.0 mi ESE 6.9 mph - N/A   Partly Cloudy
6:53 PM 84.0 °F 91.2 °F 73.9 °F 72% 29.99 in 10.0 mi ESE 8.1 mph - N/A   Scattered Clouds
7:53 PM 82.9 °F 90.2 °F 75.0 °F 77% 29.99 in 10.0 mi ESE 6.9 mph - N/A   Partly Cloudy
8:53 PM 82.9 °F 90.2 °F 75.0 °F 77% 30.01 in 10.0 mi ESE 6.9 mph - N/A   Partly Cloudy
9:53 PM 82.0 °F 89.4 °F 75.9 °F 82% 30.03 in 10.0 mi SSE 3.5 mph - N/A   Partly Cloudy
10:53 PM 82.0 °F 89.4 °F 75.9 °F 82% 30.05 in 10.0 mi Calm Calm - N/A   Partly Cloudy
11:53 PM 82.0 °F 89.4 °F 75.9 °F 82% 30.04 in 10.0 mi ESE 3.5 mph - N/A   Partly Cloudy